THORAD DELTA 1 DEB, 13527

Orbit data source: Space-Track

THORAD DELTA 1 DEB, 13527 is space debris in SSO originally from a launch on Fri, 15 Nov 1974 UTC launched from the Air Force Western Test Range (AFWTR). Debris objects in space refer to the collection of defunct objects orbiting the Earth. Examples of debris include non-operational satellites, rocket bodies, and fragments generated from explosions, collisions, or faulty payload assembly.

Loading next visibility...
Identifier
13527, 1974-089EN
Orbit
SSO
Country
Flag of USUS
Related business
Manufacturer
Unknown
Mission
Spacecraft
Bus & Motor
Unknown
Mass
Unknown
Launch date (UTC)
1974-11-15 (52 years ago)
Launch vehicle
Unknown
Launch site
Air Force Western Test Range (AFWTR)
Object type
Payload
Rocket body
Debris
Shape & HBR
Unknown shape, 0.1 m
Radar Cross Section
Medium (>0.1 m² and <1 m²)

Expand to show TLE details & history
Last TLE update: 23 hours ago

TLE from 23 hours ago
0 THORAD DELTA 1 DEB
1 13527U 74089EN  26165.58332311  .00001165  00000-0  72626-2 0  9990
2 13527 102.9193 161.3570 0314611 245.7113 242.5705 12.43957159 70500
Epoch: 2026-06-14T13:59Z
TLE epoch observation values (Epoch: 2026-06-14T13:59:59.116Z)
Latitude
52.94191°
Longitude
-113.92538°
Altitude
1,618.289 km
Speed
7.012 km/s
True Right ascension
23h 55m 48s
True Declination
52° 47' 39"
Sunlit
Object was in daylight at epoch
Visualization orbit readout
Latitude
Unknown
Longitude
Unknown
Altitude
Unknown
Speed
Unknown
Apparent Right ascension
Unknown
Apparent Declination
Unknown
Sunlit
N/A
Visualization observer readout
Local Sidereal Time
00:02:50
Azimuth
Unknown
Elevation
Unknown
Doppler factor
Unknown
Orbital elements
Apogee altitude
1,734.957 km
Perigee altitude
1,240.034 km
Semi-major axis
7,865.633 km
Eccentricity
0.03146
Inclination
102.9193°
RAAN
161.357°
Arg. of periapsis
245.7113°
True anomaly
239.42917°
Mean anomaly
242.5705°
Eccentric anomaly
240.99401°
Mean motion
3.11131 °/min
Orbital period
115.71 mins
BSTAR
0.0072626
Loading maneuver chart data...
Computing Atmospheric mass density...

Documentation

Showing up to 5 results
|